Wind_Speed
19 20 19 18 17 15 14 12 11 10 9 7 7 8 8 7 7 6 5 4 4 6 7 9 11 14 17 19 21 23 26 28 30 32 35 37 38 37 35 34 35 35
19 19 19 18 17 16 14 13 11 10 9 8 7 6 6 6 6 5 4 3 3 6 8 11 14 16 17 19 22 24 26 28 30 33 36 38 38 37 35 34 35 35
18 18 18 18 18 16 15 13 12 10 9 9 7 5 5 5 4 3 3 2 3 6 10 13 15 16 18 20 22 24 26 28 31 34 37 38 39 37 35 34 34 34
17 17 17 17 17 16 16 14 13 12 10 9 7 6 5 4 2 1 2 2 5 9 11 13 15 17 19 21 23 25 27 30 32 34 37 38 38 37 34 34 34 34
16 16 16 16 17 16 15 15 14 12 11 9 7 6 5 4 2 1 1 3 7 9 11 13 15 18 19 21 23 26 28 31 32 34 36 38 38 37 35 34 34 34
16 16 16 16 15 15 14 14 14 12 11 9 7 5 5 4 2 2 3 6 8 9 11 13 15 17 19 21 24 26 29 31 32 34 35 37 38 37 35 34 34 34
16 15 15 15 14 14 14 13 13 12 11 9 7 6 4 3 1 3 5 7 8 10 11 13 15 17 19 22 24 26 29 31 32 33 35 37 38 37 35 34 34 34
17 16 15 14 13 14 13 12 12 12 11 10 9 7 4 2 2 3 4 6 8 9 11 13 15 18 20 22 24 26 28 31 32 32 34 36 37 37 36 34 34 34
18 17 15 14 14 14 12 11 12 12 11 10 10 7 5 3 3 4 5 6 8 9 11 14 16 19 21 22 24 26 28 30 32 32 34 36 37 37 36 34 33 33
19 18 16 15 15 14 13 13 13 13 10 10 8 7 6 5 4 5 6 7 8 10 12 15 17 19 21 22 24 26 28 30 32 32 33 35 36 37 36 34 33 33
19 18 17 16 15 14 14 15 15 12 10 9 8 7 7 7 6 6 7 8 9 11 13 15 17 18 20 22 24 26 28 30 32 33 33 35 36 36 36 34 32 32
20 19 18 16 16 16 16 17 16 13 10 10 9 9 9 9 8 9 9 9 10 12 14 16 17 19 21 23 24 26 28 30 32 33 33 35 36 36 36 34 32 32
20 19 18 17 17 17 18 18 16 14 12 11 10 11 11 11 11 11 11 11 12 13 15 17 18 20 21 23 25 26 28 30 31 32 34 35 36 37 36 35 32 31
21 19 18 18 19 18 18 17 16 15 13 12 12 12 12 12 12 12 12 12 13 14 16 17 19 20 22 23 25 26 28 29 30 32 33 35 36 37 36 35 33 31
21 19 18 19 19 18 18 17 16 15 14 13 13 13 13 13 14 14 13 13 14 15 17 18 20 21 22 24 25 26 28 29 30 32 33 34 36 36 36 35 32 30
21 20 19 19 19 18 18 17 16 15 14 13 13 13 13 14 14 14 14 14 15 16 18 19 20 21 23 24 26 27 28 29 30 31 33 35 36 37 35 34 32 30
21 20 20 20 19 18 18 17 17 16 15 14 13 13 13 14 14 14 14 14 15 17 18 19 21 22 23 24 26 28 29 30 30 32 33 36 37 37 35 32 31 29
22 21 21 21 20 19 18 18 17 17 16 15 14 13 14 14 14 14 14 15 16 17 18 20 21 22 24 25 27 28 30 31 31 32 34 36 38 37 33 31 30 29
22 22 22 22 21 19 19 19 18 17 16 15 14 14 14 15 15 15 15 15 16 17 19 20 21 22 24 26 28 29 30 31 31 32 34 36 38 36 31 29 30 28
23 22 22 22 21 20 19 19 18 18 17 16 15 15 15 16 16 15 15 16 16 17 18 19 21 23 25 27 29 30 31 30 30 31 33 36 36 34 29 28 29 28
24 23 23 23 21 20 20 19 19 18 17 17 16 15 16 16 16 16 16 17 17 17 18 20 21 23 25 27 29 30 31 30 29 30 32 34 35 33 29 28 29 27
25 24 24 24 23 22 21 20 20 20 19 18 16 16 16 17 16 16 17 17 17 17 18 20 21 23 25 27 29 30 30 29 28 29 30 32 33 32 30 28 28 26
25 25 25 25 24 23 23 22 21 21 20 19 17 17 17 17 16 17 17 18 17 18 19 21 22 24 26 27 29 30 30 29 29 29 31 32 32 32 30 28 27 25
26 26 25 26 25 25 24 23 22 22 21 19 18 17 17 16 16 17 18 18 18 19 20 21 23 24 25 27 29 31 31 30 30 31 32 31 31 31 29 27 26 24
27 27 27 27 26 26 25 24 23 23 22 20 19 18 16 16 16 17 18 18 18 20 21 22 23 24 25 27 29 31 31 30 30 31 32 32 30 29 26 25 24 22
27 27 28 28 27 26 26 24 22 22 21 20 19 17 15 15 17 18 18 18 19 21 23 24 25 26 27 28 29 30 30 29 29 30 32 32 30 26 23 23 23 21
Wind_Direction
160 158 156 156 157 153 147 146 145 138 128 121 117 116 112 98 90 87 74 47 10 358 352 346 352 359 0 358 355 356 358 360 359 358 357 356 355 354 355 355 354 351
164 162 160 160 160 156 153 154 151 143 136 131 125 117 109 95 88 88 80 56 5 349 350 355 1 1 357 354 355 356 356 356 356 357 357 356 355 355 356 356 354 351
169 168 165 164 162 159 160 159 153 149 146 141 137 126 104 98 105 95 76 53 356 356 2 4 1 356 354 354 354 352 351 352 355 358 357 356 355 355 356 356 354 352
174 172 170 169 166 164 164 162 159 157 155 151 147 134 119 122 128 80 54 16 360 7 7 1 355 353 353 353 349 348 349 351 355 357 357 355 354 355 356 356 354 354
181 177 176 176 173 170 168 167 165 162 160 162 157 140 134 146 164 213 324 353 3 6 2 355 352 351 350 348 346 346 348 351 353 356 356 354 353 354 356 356 355 356
191 187 184 184 180 175 175 173 167 165 169 170 162 153 153 163 194 279 332 353 357 356 355 351 346 345 344 344 345 345 346 348 351 354 354 353 353 354 355 356 356 357
196 196 192 192 187 182 185 182 170 171 178 174 173 180 175 168 249 323 338 344 346 346 346 342 337 339 341 342 343 343 344 345 348 352 353 352 352 353 355 356 356 358
199 201 199 199 195 191 193 188 180 184 185 178 184 195 187 184 258 304 323 328 333 334 332 332 334 338 340 341 341 341 341 342 344 349 352 352 352 353 354 355 356 358
198 202 202 202 201 198 195 191 196 200 194 189 191 194 194 211 250 287 309 317 321 323 325 330 335 338 338 339 339 339 338 338 342 347 351 352 351 352 354 354 355 358
198 201 202 202 203 200 190 191 205 209 201 200 201 198 208 228 252 280 298 306 313 320 325 330 333 335 335 335 336 336 335 336 340 345 349 350 350 351 353 354 354 357
200 200 201 202 202 198 190 194 210 214 207 213 218 216 226 242 258 274 289 301 311 319 323 326 329 330 332 332 332 333 333 335 339 342 346 349 349 349 351 352 353 356
203 202 200 199 200 199 194 198 210 217 216 222 228 230 237 249 261 273 286 297 307 315 318 321 324 326 328 328 329 330 331 333 338 341 343 346 347 347 349 351 352 355
205 204 201 197 197 199 198 200 207 213 218 225 231 235 241 250 261 272 283 292 302 310 313 316 320 322 324 324 325 327 329 331 336 339 341 343 345 345 346 348 351 354
206 205 202 199 198 199 199 202 205 208 214 223 231 237 243 250 259 268 277 289 299 304 308 312 316 317 319 321 322 324 326 329 334 338 339 341 343 344 344 346 349 353
207 205 203 203 200 198 200 203 204 207 212 221 231 239 246 252 258 266 275 287 295 300 304 308 311 314 316 318 320 322 324 328 332 336 338 339 342 343 343 344 347 351
207 204 205 207 204 199 199 202 204 208 214 222 232 241 248 254 260 267 276 285 292 296 301 305 308 311 314 316 318 320 323 327 331 336 338 339 340 341 341 343 344 348
207 205 208 210 208 203 201 204 207 212 218 224 232 241 248 256 263 270 278 285 290 294 299 304 308 310 313 315 318 319 322 326 331 335 337 337 337 338 340 342 343 346
207 206 210 213 212 208 206 208 213 218 222 226 233 241 249 258 265 272 279 285 290 295 300 304 308 310 313 316 318 320 322 326 331 335 337 336 334 335 339 342 343 345
210 208 212 216 216 213 211 214 219 223 226 229 234 242 250 259 266 272 280 285 290 295 299 304 308 311 314 316 319 321 323 327 333 337 337 334 333 335 340 343 343 343
213 212 214 218 218 216 215 216 221 227 229 231 236 243 251 259 265 272 279 284 289 294 298 304 308 311 314 317 319 322 325 329 334 337 336 335 336 339 342 343 343 342
213 214 217 220 220 219 218 218 223 228 230 233 237 242 251 258 265 272 279 284 289 294 299 304 308 310 313 316 319 322 326 329 332 333 334 336 338 340 342 343 342 340
216 217 219 221 223 222 222 222 225 230 233 234 237 243 252 260 268 275 280 285 290 296 300 304 307 309 312 315 318 321 324 328 330 330 332 335 337 338 339 340 340 339
220 221 222 224 226 226 226 226 228 234 237 238 241 247 255 265 273 279 282 288 295 300 302 304 306 309 312 315 316 317 320 324 327 328 329 331 334 334 335 337 338 337
220 222 225 228 229 230 230 229 232 236 240 242 245 251 260 268 275 280 284 291 299 302 303 305 307 309 312 313 314 315 316 317 321 324 326 327 330 331 332 335 336 335
218 222 227 231 233 234 235 234 235 238 241 245 248 253 261 269 275 280 287 294 299 300 301 304 306 308 309 310 311 312 313 314 315 319 322 324 327 329 331 334 334 333
218 222 228 232 235 237 239 238 238 241 244 246 250 255 261 269 275 280 287 293 295 297 300 302 304 306 308 309 310 310 311 312 313 315 318 321 324 328 331 333 331 331
Height
5939 5940 5941 5943 5944 5945 5946 5947 5948 5949 5949 5950 5950 5950 5950 5950 5950 5950 5950 5950 5949 5949 5948 5947 5945 5943 5940 5939 5937 5935 5932 5929 5927 5925 5922 5918 5915 5911 5907 5904 5901 5898
5939 5940 5941 5942 5944 5945 5945 5946 5947 5948 5948 5949 5949 5949 5949 5949 5949 5950 5950 5949 5949 5948 5947 5945 5943 5942 5940 5938 5936 5934 5932 5929 5927 5924 5921 5917 5914 5910 5906 5903 5900 5897
5940 5940 5941 5942 5943 5944 5945 5946 5946 5947 5947 5947 5948 5948 5948 5948 5949 5949 5949 5949 5949 5948 5946 5944 5943 5942 5940 5938 5935 5934 5932 5929 5926 5923 5920 5917 5913 5909 5906 5903 5900 5897
5940 5940 5941 5942 5943 5943 5944 5945 5945 5946 5946 5947 5947 5947 5948 5948 5948 5948 5948 5948 5947 5946 5944 5943 5942 5941 5939 5937 5935 5934 5931 5928 5925 5922 5919 5916 5912 5909 5905 5902 5899 5896
5939 5940 5941 5942 5942 5943 5944 5944 5944 5945 5945 5946 5946 5946 5947 5947 5947 5947 5947 5947 5945 5944 5944 5943 5941 5939 5938 5937 5935 5933 5930 5927 5924 5922 5919 5915 5912 5908 5905 5901 5898 5895
5939 5940 5941 5941 5942 5943 5943 5943 5944 5944 5945 5945 5945 5945 5946 5946 5946 5946 5945 5945 5944 5943 5943 5941 5940 5939 5938 5936 5934 5931 5929 5926 5924 5921 5918 5915 5911 5907 5904 5901 5897 5894
5937 5938 5940 5941 5942 5943 5943 5943 5943 5943 5944 5944 5945 5945 5945 5945 5944 5944 5943 5943 5942 5942 5942 5941 5940 5939 5937 5936 5933 5931 5928 5925 5923 5920 5917 5914 5910 5907 5903 5900 5897 5894
5936 5937 5938 5940 5941 5942 5943 5944 5943 5943 5943 5944 5944 5944 5944 5944 5943 5942 5942 5942 5941 5941 5941 5940 5939 5938 5936 5934 5932 5930 5927 5924 5922 5919 5917 5913 5910 5906 5903 5900 5897 5893
5934 5935 5937 5938 5940 5941 5943 5943 5943 5943 5943 5943 5943 5944 5943 5943 5942 5942 5941 5941 5941 5941 5940 5939 5938 5936 5935 5933 5931 5928 5926 5923 5921 5919 5916 5912 5909 5906 5902 5899 5897 5893
5931 5933 5935 5936 5938 5940 5941 5942 5942 5942 5943 5943 5943 5943 5942 5942 5942 5941 5940 5940 5940 5939 5938 5937 5936 5935 5934 5932 5930 5927 5925 5922 5920 5918 5915 5912 5908 5905 5902 5899 5896 5893
5929 5931 5933 5934 5936 5938 5939 5940 5940 5941 5942 5942 5942 5941 5941 5941 5940 5940 5939 5939 5938 5938 5937 5936 5935 5934 5932 5930 5928 5926 5924 5921 5919 5917 5914 5911 5908 5905 5902 5899 5896 5893
5927 5928 5930 5933 5934 5936 5937 5938 5938 5939 5940 5940 5940 5940 5939 5939 5939 5938 5938 5938 5937 5937 5936 5935 5933 5932 5931 5929 5927 5925 5923 5921 5918 5916 5913 5910 5907 5904 5901 5898 5895 5892
5925 5927 5928 5931 5932 5934 5935 5936 5936 5937 5938 5939 5939 5938 5938 5937 5937 5937 5937 5936 5936 5935 5934 5933 5932 5930 5929 5927 5926 5924 5922 5920 5917 5915 5912 5909 5906 5903 5900 5898 5894 5891
5924 5925 5927 5928 5930 5932 5934 5934 5935 5935 5936 5937 5937 5937 5937 5936 5936 5936 5935 5935 5935 5934 5933 5932 5930 5929 5928 5926 5924 5922 5920 5918 5916 5914 5911 5908 5905 5902 5900 5897 5894 5891
5923 5925 5926 5927 5928 5930 5932 5933 5933 5934 5934 5935 5935 5935 5936 5935 5935 5934 5934 5934 5933 5932 5931 5930 5929 5928 5926 5925 5923 5921 5919 5917 5915 5912 5909 5906 5904 5901 5899 5896 5894 5891
5922 5923 5924 5925 5926 5928 5930 5931 5932 5932 5932 5933 5933 5934 5934 5934 5934 5933 5933 5933 5932 5931 5930 5929 5928 5927 5925 5923 5921 5919 5917 5916 5914 5911 5908 5905 5902 5900 5898 5896 5893 5891
5921 5922 5923 5923 5925 5926 5928 5929 5930 5931 5931 5931 5932 5932 5932 5932 5932 5932 5932 5932 5931 5930 5929 5928 5927 5925 5923 5922 5920 5918 5916 5914 5912 5910 5907 5904 5901 5899 5897 5895 5892 5890
5920 5921 5921 5922 5923 5925 5926 5928 5929 5929 5929 5930 5930 5930 5931 5931 5931 5931 5931 5930 5929 5928 5927 5927 5925 5924 5922 5920 5919 5916 5914 5912 5910 5908 5905 5902 5899 5897 5895 5893 5891 5889
5919 5920 5920 5920 5922 5923 5925 5926 5927 5928 5928 5928 5928 5929 5929 5929 5930 5930 5929 5929 5928 5927 5926 5925 5924 5922 5921 5919 5917 5915 5913 5911 5909 5906 5904 5901 5898 5896 5894 5892 5890 5888
5917 5918 5919 5919 5920 5922 5923 5924 5925 5926 5926 5926 5927 5927 5927 5928 5928 5928 5928 5927 5926 5925 5924 5923 5922 5921 5919 5917 5916 5914 5912 5910 5908 5905 5902 5899 5897 5894 5892 5891 5889 5887
5915 5916 5917 5918 5919 5920 5921 5922 5923 5924 5924 5924 5924 5925 5925 5926 5926 5927 5926 5925 5925 5924 5923 5922 5921 5919 5918 5916 5914 5913 5911 5909 5906 5903 5901 5898 5895 5893 5891 5890 5888 5886
5914 5915 5915 5916 5917 5918 5919 5920 5921 5922 5922 5922 5922 5923 5923 5924 5925 5926 5925 5924 5923 5923 5922 5921 5919 5918 5916 5914 5913 5911 5909 5907 5905 5902 5899 5897 5894 5892 5890 5889 5887 5885
5912 5913 5914 5914 5915 5916 5917 5918 5919 5920 5920 5920 5921 5921 5922 5923 5924 5924 5923 5922 5922 5921 5920 5919 5917 5916 5914 5913 5911 5909 5908 5906 5904 5901 5898 5895 5893 5891 5889 5888 5886 5884
5909 5910 5912 5913 5914 5915 5915 5916 5917 5918 5918 5918 5919 5920 5921 5922 5922 5922 5921 5921 5920 5919 5918 5917 5915 5914 5912 5910 5909 5907 5905 5904 5902 5899 5896 5894 5891 5889 5887 5886 5885 5883
5907 5908 5909 5911 5912 5913 5913 5914 5915 5915 5916 5917 5917 5918 5919 5920 5920 5920 5919 5919 5918 5917 5915 5914 5913 5911 5910 5908 5906 5905 5903 5902 5900 5898 5895 5892 5890 5888 5886 5885 5884 5882
5905 5906 5907 5908 5910 5911 5911 5912 5913 5914 5914 5915 5915 5916 5917 5918 5917 5917 5917 5916 5915 5914 5913 5911 5910 5909 5907 5906 5904 5903 5901 5899 5898 5896 5893 5891 5888 5886 5885 5884 5882 5881